TimeMDT,TemperatureF,Dew PointF,Humidity,Sea Level PressureIn,VisibilityMPH,Wind Direction,Wind SpeedMPH,Gust SpeedMPH,PrecipitationIn,Events,Conditions,WindDirDegrees,DateUTC
12:54 AM,57.0,33.1,40,29.88,10.0,SSE,9.2,-,N/A,,Clear,160,2011-10-01 06:54:00
4:54 AM,55.9,34.0,44,29.87,10.0,ESE,8.1,-,N/A,,Clear,110,2011-10-01 10:54:00
5:54 AM,57.0,33.1,40,29.87,10.0,SE,11.5,-,N/A,,Clear,140,2011-10-01 11:54:00
6:54 AM,61.0,32.0,34,29.87,10.0,ESE,10.4,-,N/A,,Clear,120,2011-10-01 12:54:00
9:54 AM,77.0,32.0,19,29.84,10.0,East,11.5,-,N/A,,Clear,90,2011-10-01 15:54:00
10:54 AM,79.0,34.0,20,29.84,10.0,East,3.5,-,N/A,,Clear,80,2011-10-01 16:54:00
12:14 PM,87.8,32.0,14,29.93,10.0,South,16.1,-,N/A,,Clear,190,2011-10-01 18:14:00
1:54 PM,89.1,28.9,12,29.80,10.0,SW,20.7,24.2,N/A,,Clear,230,2011-10-01 19:54:00
2:54 PM,89.1,30.0,12,29.79,10.0,SSW,19.6,29.9,N/A,,Clear,210,2011-10-01 20:54:00
3:54 PM,89.1,30.0,12,29.78,10.0,SSW,24.2,27.6,N/A,,Clear,210,2011-10-01 21:54:00
4:54 PM,86.0,30.0,13,29.77,10.0,SSW,16.1,-,N/A,,Clear,210,2011-10-01 22:54:00
5:54 PM,73.0,36.0,26,29.84,10.0,WNW,12.7,-,N/A,,Partly Cloudy,300,2011-10-01 23:54:00
6:43 PM,66.2,33.8,30,29.94,10.0,NW,16.1,26.5,0.00,,Partly Cloudy,320,2011-10-02 00:43:00
6:54 PM,64.0,34.0,33,29.86,10.0,NW,15.0,21.9,0.00,,Clear,310,2011-10-02 00:54:00
7:54 PM,61.0,34.0,36,29.92,10.0,West,13.8,21.9,N/A,,Clear,270,2011-10-02 01:54:00
8:01 PM,60.8,33.8,36,29.98,10.0,NW,9.2,21.9,N/A,,Clear,310,2011-10-02 02:01:00
8:54 PM,59.0,34.0,39,29.91,10.0,South,5.8,-,N/A,,Partly Cloudy,190,2011-10-02 02:54:00
9:54 PM,55.0,36.0,49,29.91,10.0,SW,6.9,-,N/A,,Clear,230,2011-10-02 03:54:00
10:54 PM,53.1,35.1,50,29.91,10.0,WSW,6.9,-,N/A,,Clear,240,2011-10-02 04:54:00
11:54 PM,51.1,35.1,54,29.89,10.0,South,3.5,-,N/A,,Clear,170,2011-10-02 05:54:00